Weather History for Fort Lauderdale, FL

Change the Weather History Date:

Thursday, February 21, 2013

  Actual Average Record
Temperature  
Mean Temperature 72 °F -  
Max Temperature 81 °F 79 °F 86 °F (1967)
Min Temperature 64 °F 60 °F 33 °F (1977)
Cooling Degree Days 8    
Growing Degree Days 22 (Base 50)    
Moisture  
Dew Point 64 °F    
Average Humidity 75    
Maximum Humidity 97    
Minimum Humidity 56    
Precipitation  
Precipitation 0.00 in - - ()
Sea Level Pressure  
Sea Level Pressure 30.06 in    
Wind  
Wind Speed 6 mph (ESE)    
Max Wind Speed 14 mph    
Max Gust Speed 20 mph    
Visibility 10 miles    
Events      
Averages and records for this station are not official NWS values.
T = Trace of Precipitation, MM = Missing Value Source: NWS Daily Summary

Daily Weather History Graph

Daily Weather History Graph

Search for Another Location

Airport:

Trip Planner

Search our weather history database for the weather conditions in past years. The results will help you decide how hot, cold, wet, or windy it might be!

Date:

Astronomy

Feb. 21, 2013 Rise Set
Actual Time 6:51 AM EST 6:17 PM EST
Civil Twilight 6:27 AM EST 6:41 PM EST
Nautical Twilight 6:00 AM EST 7:08 PM EST
Astronomical Twilight 5:34 AM EST 7:34 PM EST
Moon 2:45 PM EST (2/21) 3:39 AM EST (2/21)
Length of Visible Light 12h 13m
Length of Day
11h 26m
Waxing Gibbous, 83% of the Moon is Illuminated
Feb 21
Waxing Gibbous
Feb 25
Full
Mar 4
Last Quarter
Mar 11
New
Mar 19
First Quarter

Hourly Weather History & Observations

Time (EST) Temp. Heat Index Dew Point Humidity Pressure Visibility Wind Dir Wind Speed Gust Speed Precip Events Conditions
12:53 AM 68.0 °F - 64.9 °F 90% 30.07 in 10.0 mi ESE 3.5 mph - N/A   Partly Cloudy
1:53 AM 68.0 °F - 64.9 °F 90% 30.05 in 10.0 mi ESE 4.6 mph - N/A   Partly Cloudy
2:53 AM 66.0 °F - 64.0 °F 93% 30.03 in 10.0 mi Calm Calm - N/A   Clear
3:53 AM 68.0 °F - 64.0 °F 87% 30.01 in 10.0 mi SE 4.6 mph - N/A   Clear
4:53 AM 66.9 °F - 64.0 °F 90% 30.02 in 10.0 mi ESE 3.5 mph - N/A   Clear
5:53 AM 64.9 °F - 64.0 °F 97% 30.05 in 10.0 mi Calm Calm - N/A   Clear
6:53 AM 66.9 °F - 64.0 °F 90% 30.06 in 10.0 mi Calm Calm - N/A   Scattered Clouds
7:53 AM 68.0 °F - 64.0 °F 87% 30.08 in 10.0 mi Calm Calm - N/A   Scattered Clouds
8:53 AM 73.9 °F - 64.0 °F 71% 30.10 in 10.0 mi East 6.9 mph - N/A   Scattered Clouds
9:53 AM 75.9 °F - 63.0 °F 64% 30.10 in 10.0 mi ESE 10.4 mph - N/A   Scattered Clouds
10:53 AM 77.0 °F - 63.0 °F 62% 30.10 in 10.0 mi ESE 13.8 mph - N/A   Scattered Clouds
11:53 AM 78.1 °F - 63.0 °F 60% 30.11 in 10.0 mi ESE 10.4 mph - N/A   Scattered Clouds
12:53 PM 78.1 °F - 64.0 °F 62% 30.08 in 10.0 mi East 11.5 mph - N/A   Mostly Cloudy
1:53 PM 81.0 °F 82.5 °F 64.0 °F 56% 30.06 in 10.0 mi East 13.8 mph - N/A   Scattered Clouds
2:53 PM 78.1 °F - 63.0 °F 60% 30.05 in 10.0 mi SE 11.5 mph 19.6 mph N/A   Scattered Clouds
3:53 PM 78.1 °F - 64.9 °F 64% 30.04 in 10.0 mi ESE 9.2 mph - N/A   Scattered Clouds
4:53 PM 77.0 °F - 64.9 °F 66% 30.04 in 10.0 mi ESE 9.2 mph - N/A   Scattered Clouds
5:53 PM 73.9 °F - 64.9 °F 73% 30.05 in 10.0 mi ESE 10.4 mph - N/A   Partly Cloudy
6:53 PM 73.0 °F - 64.0 °F 73% 30.05 in 10.0 mi ESE 8.1 mph - N/A   Clear
7:53 PM 73.0 °F - 62.1 °F 68% 30.06 in 10.0 mi ESE 8.1 mph - N/A   Clear
8:53 PM 72.0 °F - 63.0 °F 73% 30.07 in 10.0 mi ESE 9.2 mph - N/A   Clear
9:53 PM 72.0 °F - 64.0 °F 76% 30.07 in 10.0 mi ESE 6.9 mph - N/A   Clear
10:53 PM 72.0 °F - 64.9 °F 78% 30.08 in 10.0 mi ESE 9.2 mph - N/A   Scattered Clouds
11:53 PM 72.0 °F - 64.9 °F 78% 30.07 in 10.0 mi ESE 11.5 mph - N/A   Partly Cloudy